WMT714 EDDS-LROP

Flight info

Callsign WMT714
Flight time 1h 45m
Altitude 35000
Route ABTAL L173 RIXED Y161 RIDAR Z98 MIQ L605 BIBAG Q104 AKIMA DCT STEIN DCT LAMIT DCT TOSVI
Aircraft A321/M-SDE1E2E3FGIJ1J4RWXY/LB1

Departure

Time 2026-05-06 09:59
Airport Stuttgart Airport (EDDS)

Arrival

Time 2026-05-06 11:45
Airport Bucharest Henri Coandă International Airport (LROP)
Time Latitude Longitude Altitude Speed Heading
2026-05-06 09:34 48.68963 9.19781 1284 ft 0 kts 344°
2026-05-06 09:45 48.68957 9.19783 1284 ft 2 kts 344°
2026-05-06 09:46 48.68943 9.19790 1284 ft 2 kts 344°
2026-05-06 09:46 48.68928 9.19796 1284 ft 2 kts 348°
2026-05-06 09:46 48.68914 9.19796 1284 ft 2 kts 11°
2026-05-06 09:46 48.68899 9.19789 1284 ft 2 kts 28°
2026-05-06 09:47 48.68887 9.19776 1284 ft 2 kts 46°
2026-05-06 09:47 48.68878 9.19758 1284 ft 2 kts 64°
2026-05-06 09:47 48.68876 9.19747 1284 ft 1 kts 74°
2026-05-06 09:47 48.68874 9.19742 1284 ft 0 kts 72°
2026-05-06 09:49 48.68875 9.19743 1284 ft 0 kts 72°
2026-05-06 09:50 48.68886 9.19797 1284 ft 2 kts 72°
2026-05-06 09:50 48.68881 9.19820 1284 ft 6 kts 131°
2026-05-06 09:50 48.68843 9.19881 1284 ft 7 kts 133°
2026-05-06 09:50 48.68827 9.19964 1284 ft 12 kts 77°
2026-05-06 09:51 48.68854 9.20118 1284 ft 15 kts 73°
2026-05-06 09:51 48.68883 9.20264 1284 ft 14 kts 74°
2026-05-06 09:51 48.68918 9.20453 1284 ft 23 kts 73°
2026-05-06 09:51 48.68962 9.20683 1284 ft 21 kts 74°
2026-05-06 09:52 48.69001 9.20889 1284 ft 19 kts 73°
2026-05-06 09:52 48.69037 9.21075 1284 ft 17 kts 74°
2026-05-06 09:52 48.69070 9.21256 1284 ft 20 kts 75°
2026-05-06 09:52 48.69109 9.21456 1284 ft 18 kts 74°
2026-05-06 09:53 48.69144 9.21641 1284 ft 17 kts 73°
2026-05-06 09:53 48.69176 9.21811 1284 ft 18 kts 73°
2026-05-06 09:53 48.69217 9.22028 1284 ft 21 kts 73°
2026-05-06 09:53 48.69258 9.22243 1284 ft 20 kts 74°
2026-05-06 09:54 48.69296 9.22443 1284 ft 18 kts 74°
2026-05-06 09:54 48.69330 9.22625 1284 ft 17 kts 74°
2026-05-06 09:54 48.69361 9.22790 1284 ft 15 kts 74°
2026-05-06 09:54 48.69390 9.22944 1284 ft 14 kts 74°
2026-05-06 09:55 48.69416 9.23081 1284 ft 13 kts 74°
2026-05-06 09:55 48.69441 9.23211 1284 ft 12 kts 74°
2026-05-06 09:55 48.69463 9.23330 1284 ft 11 kts 74°
2026-05-06 09:55 48.69484 9.23441 1284 ft 10 kts 73°
2026-05-06 09:56 48.69505 9.23547 1284 ft 10 kts 73°
2026-05-06 09:56 48.69524 9.23644 1284 ft 9 kts 73°
2026-05-06 09:56 48.69548 9.23773 1284 ft 13 kts 73°
2026-05-06 09:56 48.69572 9.23900 1284 ft 12 kts 74°
2026-05-06 09:57 48.69594 9.24019 1284 ft 11 kts 74°
2026-05-06 09:57 48.69613 9.24128 1284 ft 9 kts 88°
2026-05-06 09:57 48.69591 9.24229 1284 ft 12 kts 126°
2026-05-06 09:57 48.69527 9.24307 1284 ft 11 kts 161°
2026-05-06 09:58 48.69452 9.24336 1284 ft 10 kts 168°
2026-05-06 09:58 48.69392 9.24317 1284 ft 9 kts 243°
2026-05-06 09:58 48.69355 9.24132 1284 ft 43 kts 253°
2026-05-06 09:58 48.69210 9.23367 1284 ft 107 kts 253°
2026-05-06 09:59 48.68951 9.22003 1284 ft 162 kts 254°
2026-05-06 09:59 48.68612 9.20188 1539 ft 185 kts 255°
2026-05-06 09:59 48.68260 9.18273 2091 ft 191 kts 255°
2026-05-06 09:59 48.67903 9.16398 2777 ft 185 kts 255°
2026-05-06 10:00 48.67525 9.14471 3044 ft 197 kts 255°
2026-05-06 10:00 48.67117 9.12435 3301 ft 210 kts 255°
2026-05-06 10:00 48.66581 9.10267 3548 ft 227 kts 241°
2026-05-06 10:00 48.65470 9.08434 3791 ft 248 kts 214°
2026-05-06 10:01 48.63858 9.07513 4321 ft 256 kts 187°
2026-05-06 10:01 48.62100 9.07785 4943 ft 260 kts 159°
2026-05-06 10:01 48.60586 9.09264 5532 ft 264 kts 130°
2026-05-06 10:01 48.59692 9.11649 6103 ft 265 kts 101°
2026-05-06 10:02 48.59630 9.14407 6599 ft 267 kts 72°
2026-05-06 10:02 48.60399 9.17013 6946 ft 277 kts 55°
2026-05-06 10:02 48.61239 9.19696 7436 ft 292 kts 72°
2026-05-06 10:02 48.61585 9.22717 8094 ft 298 kts 79°
2026-05-06 10:03 48.61952 9.25851 8730 ft 302 kts 72°
2026-05-06 10:03 48.62603 9.28856 9321 ft 305 kts 64°
2026-05-06 10:03 48.63434 9.31839 9912 ft 310 kts 62°
2026-05-06 10:03 48.64307 9.34833 10408 ft 318 kts 62°
2026-05-06 10:04 48.65219 9.37961 10694 ft 335 kts 62°
2026-05-06 10:04 48.66190 9.41288 10972 ft 351 kts 65°
2026-05-06 10:04 48.67157 9.44714 11338 ft 363 kts 65°
2026-05-06 10:04 48.68129 9.48220 11946 ft 366 kts 64°
2026-05-06 10:05 48.69124 9.51787 12567 ft 369 kts 64°
2026-05-06 10:05 48.70135 9.55400 13142 ft 372 kts 64°
2026-05-06 10:05 48.71142 9.58999 13709 ft 376 kts 63°
2026-05-06 10:05 48.72171 9.62678 14278 ft 380 kts 63°
2026-05-06 10:06 48.73200 9.66364 14832 ft 383 kts 64°
2026-05-06 10:06 48.74234 9.70075 15363 ft 386 kts 64°
2026-05-06 10:06 48.75294 9.73882 15897 ft 390 kts 64°
2026-05-06 10:06 48.76341 9.77652 16413 ft 393 kts 64°
2026-05-06 10:07 48.77401 9.81476 16924 ft 396 kts 63°
2026-05-06 10:07 48.78483 9.85382 17432 ft 399 kts 63°
2026-05-06 10:07 48.79548 9.89236 17920 ft 402 kts 63°
2026-05-06 10:07 48.80629 9.93152 18403 ft 405 kts 63°
2026-05-06 10:08 48.81721 9.97114 18878 ft 408 kts 63°
2026-05-06 10:08 48.82812 10.01084 19363 ft 410 kts 63°
2026-05-06 10:08 48.83903 10.05058 19831 ft 412 kts 63°
2026-05-06 10:08 48.84857 10.09233 20262 ft 420 kts 73°
2026-05-06 10:09 48.85225 10.13636 20681 ft 428 kts 88°
2026-05-06 10:09 48.85023 10.18129 21116 ft 431 kts 95°
2026-05-06 10:09 48.84615 10.22682 21624 ft 431 kts 96°
2026-05-06 10:09 48.84188 10.27128 22066 ft 433 kts 96°
2026-05-06 10:10 48.83772 10.31739 22336 ft 440 kts 96°
2026-05-06 10:10 48.83385 10.36312 22679 ft 444 kts 96°
2026-05-06 10:10 48.82635 10.40906 23038 ft 448 kts 112°
2026-05-06 10:10 48.81138 10.44993 23403 ft 446 kts 130°
2026-05-06 10:11 48.79102 10.48478 23786 ft 445 kts 137°
2026-05-06 10:11 48.76892 10.51822 24121 ft 448 kts 139°
2026-05-06 10:11 48.74702 10.55139 24445 ft 452 kts 137°
2026-05-06 10:11 48.72492 10.58581 24782 ft 455 kts 137°
2026-05-06 10:12 48.70315 10.62036 25113 ft 458 kts 136°
2026-05-06 10:12 48.68143 10.65502 25438 ft 461 kts 137°
2026-05-06 10:12 48.65931 10.69028 25748 ft 463 kts 137°
2026-05-06 10:12 48.63711 10.72559 26051 ft 466 kts 137°
2026-05-06 10:13 48.61467 10.76143 26349 ft 469 kts 134°
2026-05-06 10:13 48.59602 10.80203 26581 ft 476 kts 116°
2026-05-06 10:13 48.58577 10.84951 26850 ft 476 kts 96°
2026-05-06 10:13 48.58324 10.89891 27179 ft 473 kts 88°
2026-05-06 10:14 48.58281 10.94834 27451 ft 475 kts 86°
2026-05-06 10:14 48.58251 10.99802 27710 ft 478 kts 87°
2026-05-06 10:14 48.58170 11.04884 27990 ft 481 kts 88°
2026-05-06 10:14 48.58045 11.09895 28263 ft 483 kts 89°
2026-05-06 10:15 48.57903 11.15001 28532 ft 485 kts 88°
2026-05-06 10:15 48.57797 11.20026 28794 ft 486 kts 88°
2026-05-06 10:15 48.57705 11.25177 29060 ft 488 kts 87°
2026-05-06 10:15 48.57615 11.30295 29309 ft 490 kts 87°
2026-05-06 10:16 48.57521 11.35418 29553 ft 492 kts 87°
2026-05-06 10:16 48.57420 11.40597 29805 ft 494 kts 87°
2026-05-06 10:16 48.57316 11.45754 30043 ft 496 kts 87°
2026-05-06 10:16 48.57206 11.50989 30286 ft 497 kts 87°
2026-05-06 10:17 48.57041 11.56181 30516 ft 501 kts 90°
2026-05-06 10:17 48.56673 11.61401 30738 ft 504 kts 94°
2026-05-06 10:17 48.56064 11.66677 30955 ft 508 kts 99°
2026-05-06 10:17 48.55317 11.71884 31169 ft 509 kts 100°
2026-05-06 10:18 48.54537 11.77075 31445 ft 509 kts 100°
2026-05-06 10:18 48.53754 11.82263 31734 ft 508 kts 100°
2026-05-06 10:18 48.52972 11.87472 32011 ft 508 kts 99°
2026-05-06 10:18 48.52209 11.92590 32271 ft 507 kts 99°
2026-05-06 10:19 48.51431 11.97820 32528 ft 507 kts 99°
2026-05-06 10:19 48.50663 12.02938 32773 ft 507 kts 98°
2026-05-06 10:19 48.49878 12.08159 32994 ft 507 kts 97°
2026-05-06 10:19 48.49105 12.13349 33202 ft 508 kts 97°
2026-05-06 10:20 48.48340 12.18486 33408 ft 509 kts 97°
2026-05-06 10:20 48.47566 12.23658 33620 ft 509 kts 97°
2026-05-06 10:20 48.46785 12.28846 33818 ft 510 kts 97°
2026-05-06 10:20 48.45997 12.34047 34019 ft 510 kts 96°
2026-05-06 10:21 48.45207 12.39250 34220 ft 511 kts 96°
2026-05-06 10:21 48.44415 12.44442 34409 ft 511 kts 96°
2026-05-06 10:21 48.43610 12.49709 34597 ft 512 kts 96°
2026-05-06 10:21 48.42813 12.54899 34767 ft 513 kts 97°
2026-05-06 10:22 48.41210 12.65348 34820 ft 513 kts 96°
2026-05-06 10:22 48.40123 12.75906 34814 ft 507 kts 88°
2026-05-06 10:23 48.39956 12.86415 34808 ft 498 kts 79°
2026-05-06 10:23 48.40305 12.96747 34804 ft 497 kts 78°
2026-05-06 10:24 48.40646 13.07113 34805 ft 496 kts 78°
2026-05-06 10:24 48.40937 13.17688 34805 ft 493 kts 79°
2026-05-06 10:25 48.40593 13.27996 34804 ft 503 kts 89°
2026-05-06 10:25 48.39102 13.38355 34807 ft 514 kts 99°
2026-05-06 10:26 48.36501 13.48499 34811 ft 519 kts 107°
2026-05-06 10:26 48.33641 13.58377 34814 ft 519 kts 107°
2026-05-06 10:27 48.30764 13.68373 34817 ft 519 kts 107°
2026-05-06 10:27 48.27917 13.78331 34825 ft 519 kts 107°
2026-05-06 10:28 48.25085 13.88232 34829 ft 519 kts 107°
2026-05-06 10:28 48.22232 13.98168 34830 ft 519 kts 107°
2026-05-06 10:29 48.19376 14.08076 34830 ft 519 kts 107°
2026-05-06 10:29 48.16508 14.17983 34830 ft 519 kts 107°
2026-05-06 10:30 48.13610 14.27957 34830 ft 519 kts 107°
2026-05-06 10:30 48.10733 14.37813 34830 ft 519 kts 107°
2026-05-06 10:31 48.07849 14.47654 34831 ft 519 kts 107°
2026-05-06 10:31 48.04932 14.57571 34831 ft 519 kts 107°
2026-05-06 10:32 48.02036 14.67377 34828 ft 519 kts 108°
2026-05-06 10:32 47.99118 14.77218 34829 ft 519 kts 108°
2026-05-06 10:33 47.96174 14.87099 34833 ft 519 kts 108°
2026-05-06 10:33 47.93232 14.96919 34848 ft 520 kts 107°
2026-05-06 10:34 47.90281 15.06732 34871 ft 522 kts 106°
2026-05-06 10:34 47.87299 15.16628 34881 ft 523 kts 105°
2026-05-06 10:35 47.84332 15.26457 34887 ft 523 kts 105°
2026-05-06 10:35 47.81347 15.36297 34887 ft 523 kts 105°
2026-05-06 10:36 47.78360 15.46095 34894 ft 523 kts 105°
2026-05-06 10:36 47.75339 15.55962 34919 ft 522 kts 105°
2026-05-06 10:37 47.72347 15.65695 34953 ft 522 kts 106°
2026-05-06 10:37 47.69327 15.75486 34981 ft 523 kts 107°
2026-05-06 10:38 47.66296 15.85267 34995 ft 523 kts 107°
2026-05-06 10:38 47.63248 15.95070 34999 ft 523 kts 107°
2026-05-06 10:39 47.60202 16.04824 35001 ft 523 kts 107°
2026-05-06 10:39 47.57146 16.14576 35001 ft 522 kts 107°
2026-05-06 10:40 47.54090 16.24288 35002 ft 522 kts 106°
2026-05-06 10:40 47.51030 16.33977 35002 ft 522 kts 106°
2026-05-06 10:41 47.47954 16.43679 35002 ft 522 kts 106°
2026-05-06 10:41 47.44866 16.53379 35002 ft 522 kts 106°
2026-05-06 10:42 47.41787 16.63093 35001 ft 521 kts 105°
2026-05-06 10:42 47.38864 16.72807 34990 ft 521 kts 105°
2026-05-06 10:43 47.35943 16.82555 34969 ft 521 kts 106°
2026-05-06 10:44 47.31572 16.97015 34935 ft 509 kts 107°
2026-05-06 10:44 47.28702 17.06422 34922 ft 500 kts 108°
2026-05-06 10:45 47.25850 17.15722 34915 ft 499 kts 108°
2026-05-06 10:45 47.22994 17.25007 34915 ft 499 kts 108°
2026-05-06 10:46 47.20135 17.34275 34913 ft 499 kts 108°
2026-05-06 10:46 47.17275 17.43516 34914 ft 499 kts 108°
2026-05-06 10:47 47.14390 17.52803 34914 ft 499 kts 108°
2026-05-06 10:47 47.11500 17.62065 34913 ft 499 kts 108°
2026-05-06 10:48 47.08613 17.71294 34911 ft 500 kts 109°
2026-05-06 10:48 47.05710 17.80532 34913 ft 500 kts 109°
2026-05-06 10:49 47.02797 17.89766 34913 ft 500 kts 109°
2026-05-06 10:49 46.99891 17.98942 34911 ft 498 kts 108°
2026-05-06 10:50 46.96971 18.08137 34901 ft 499 kts 108°
2026-05-06 10:50 46.94039 18.17331 34899 ft 498 kts 108°
2026-05-06 10:51 46.91118 18.26462 34903 ft 497 kts 108°
2026-05-06 10:51 46.88172 18.35641 34910 ft 496 kts 107°
2026-05-06 10:52 46.85241 18.44744 34927 ft 496 kts 107°
2026-05-06 10:52 46.82320 18.53783 34945 ft 496 kts 107°
2026-05-06 10:53 46.79377 18.62855 34955 ft 495 kts 107°
2026-05-06 10:53 46.76414 18.71963 34958 ft 496 kts 108°
2026-05-06 10:54 46.73453 18.81027 34959 ft 496 kts 108°
2026-05-06 10:54 46.70482 18.90084 34957 ft 496 kts 108°
2026-05-06 10:55 46.67530 18.99061 34954 ft 495 kts 108°
2026-05-06 10:55 46.64556 19.08105 34955 ft 490 kts 110°
2026-05-06 10:56 46.61637 19.16930 34960 ft 483 kts 111°
2026-05-06 10:56 46.58736 19.25642 34963 ft 478 kts 112°
2026-05-06 10:57 46.55841 19.34293 34965 ft 477 kts 112°
2026-05-06 10:57 46.52930 19.42978 34966 ft 477 kts 112°
2026-05-06 10:58 46.50039 19.51584 34966 ft 477 kts 112°
2026-05-06 10:58 46.47129 19.60220 34966 ft 477 kts 112°
2026-05-06 10:59 46.44219 19.68832 34965 ft 477 kts 112°
2026-05-06 10:59 46.41300 19.77438 34966 ft 477 kts 112°
2026-05-06 11:00 46.38367 19.86057 34966 ft 477 kts 112°
2026-05-06 11:00 46.35418 19.94696 34966 ft 477 kts 112°
2026-05-06 11:01 46.32489 20.03250 34966 ft 477 kts 112°
2026-05-06 11:01 46.29547 20.11811 34966 ft 477 kts 112°
2026-05-06 11:02 46.26578 20.20426 34966 ft 477 kts 112°
2026-05-06 11:02 46.23627 20.28958 34970 ft 477 kts 112°
2026-05-06 11:03 46.20902 20.37639 34977 ft 474 kts 107°
2026-05-06 11:03 46.18526 20.46513 34986 ft 474 kts 107°
2026-05-06 11:04 46.16146 20.55348 34992 ft 474 kts 107°
2026-05-06 11:04 46.13736 20.64150 34996 ft 474 kts 107°
2026-05-06 11:05 46.11298 20.72980 35029 ft 475 kts 108°
2026-05-06 11:05 46.08838 20.81838 35054 ft 475 kts 108°
2026-05-06 11:06 46.06397 20.90600 35067 ft 474 kts 108°
2026-05-06 11:06 46.03939 20.99415 35073 ft 473 kts 109°
2026-05-06 11:07 46.01492 21.08149 35076 ft 470 kts 110°
2026-05-06 11:07 45.99058 21.16775 35076 ft 468 kts 110°
2026-05-06 11:08 45.96606 21.25419 35075 ft 467 kts 110°
2026-05-06 11:08 45.94159 21.34034 35077 ft 466 kts 110°
2026-05-06 11:09 45.91708 21.42636 35076 ft 466 kts 110°
2026-05-06 11:09 45.89263 21.51192 35074 ft 466 kts 110°
2026-05-06 11:10 45.86784 21.59830 35073 ft 467 kts 110°
2026-05-06 11:10 45.84322 21.68387 35074 ft 466 kts 111°
2026-05-06 11:11 45.81833 21.77006 35075 ft 466 kts 111°
2026-05-06 11:11 45.79359 21.85540 35074 ft 467 kts 111°
2026-05-06 11:12 45.76873 21.94090 35074 ft 467 kts 111°
2026-05-06 11:12 45.74363 22.02691 35069 ft 467 kts 111°
2026-05-06 11:13 45.71857 22.11246 35061 ft 467 kts 111°
2026-05-06 11:13 45.69350 22.19779 35056 ft 466 kts 111°
2026-05-06 11:14 45.66845 22.28275 35052 ft 467 kts 111°
2026-05-06 11:14 45.64321 22.36804 35050 ft 467 kts 111°
2026-05-06 11:15 45.61794 22.45322 35049 ft 466 kts 111°
2026-05-06 11:15 45.59254 22.53849 35051 ft 467 kts 111°
2026-05-06 11:16 45.56727 22.62301 35050 ft 466 kts 111°
2026-05-06 11:16 45.54170 22.70827 35049 ft 466 kts 112°
2026-05-06 11:17 45.51623 22.79289 35050 ft 467 kts 112°
2026-05-06 11:17 45.49061 22.87807 35050 ft 469 kts 113°
2026-05-06 11:18 45.46494 22.96319 35050 ft 471 kts 115°
2026-05-06 11:18 45.43906 23.04849 34773 ft 466 kts 116°
2026-05-06 11:18 45.42619 23.09067 34518 ft 461 kts 116°
2026-05-06 11:19 45.41356 23.13180 34270 ft 458 kts 116°
2026-05-06 11:19 45.40072 23.17356 34019 ft 456 kts 116°
2026-05-06 11:19 45.38804 23.21486 33767 ft 455 kts 116°
2026-05-06 11:19 45.37547 23.25574 33518 ft 455 kts 116°
2026-05-06 11:20 45.36272 23.29721 33263 ft 455 kts 116°
2026-05-06 11:20 45.34997 23.33857 32885 ft 457 kts 116°
2026-05-06 11:20 45.33725 23.37974 32328 ft 459 kts 116°
2026-05-06 11:20 45.32442 23.42126 31790 ft 457 kts 116°
2026-05-06 11:21 45.31162 23.46267 31346 ft 453 kts 116°
2026-05-06 11:21 45.29898 23.50354 30904 ft 449 kts 116°
2026-05-06 11:21 45.28641 23.54404 30441 ft 446 kts 116°
2026-05-06 11:21 45.27393 23.58421 29979 ft 442 kts 116°
2026-05-06 11:22 45.26160 23.62387 29539 ft 439 kts 116°
2026-05-06 11:22 45.24943 23.66292 29114 ft 435 kts 116°
2026-05-06 11:22 45.23719 23.70213 28670 ft 431 kts 116°
2026-05-06 11:22 45.22516 23.74061 28244 ft 427 kts 116°
2026-05-06 11:23 45.21318 23.77889 27796 ft 424 kts 116°
2026-05-06 11:23 45.20127 23.81689 27330 ft 421 kts 116°
2026-05-06 11:23 45.18955 23.85417 26907 ft 418 kts 116°
2026-05-06 11:23 45.17768 23.89191 26502 ft 414 kts 116°
2026-05-06 11:24 45.16608 23.92875 26073 ft 410 kts 116°
2026-05-06 11:24 45.15442 23.96575 25650 ft 407 kts 116°
2026-05-06 11:24 45.14300 24.00189 25211 ft 404 kts 116°
2026-05-06 11:24 45.13165 24.03777 24789 ft 401 kts 116°
2026-05-06 11:25 45.12030 24.07358 24369 ft 398 kts 115°
2026-05-06 11:25 45.10896 24.10934 23942 ft 395 kts 115°
2026-05-06 11:25 45.09782 24.14436 23478 ft 394 kts 115°
2026-05-06 11:25 45.08654 24.17976 23033 ft 392 kts 115°
2026-05-06 11:26 45.07543 24.21463 22582 ft 390 kts 114°
2026-05-06 11:26 45.06437 24.24929 22151 ft 388 kts 114°
2026-05-06 11:26 45.05326 24.28406 21751 ft 385 kts 114°
2026-05-06 11:26 45.04227 24.31843 21343 ft 383 kts 114°
2026-05-06 11:27 45.03148 24.35214 20939 ft 380 kts 113°
2026-05-06 11:27 45.02063 24.38598 20559 ft 377 kts 113°
2026-05-06 11:27 45.00978 24.41980 20192 ft 374 kts 112°
2026-05-06 11:27 44.99916 24.45285 19835 ft 371 kts 112°
2026-05-06 11:28 44.98847 24.48610 19486 ft 369 kts 112°
2026-05-06 11:28 44.97782 24.51919 19140 ft 370 kts 112°
2026-05-06 11:28 44.96726 24.55225 18797 ft 367 kts 114°
2026-05-06 11:28 44.95691 24.58453 18444 ft 362 kts 114°
2026-05-06 11:29 44.94644 24.61683 18098 ft 356 kts 114°
2026-05-06 11:29 44.93631 24.64801 17770 ft 350 kts 114°
2026-05-06 11:29 44.92615 24.67923 17443 ft 349 kts 115°
2026-05-06 11:29 44.91615 24.70998 17120 ft 347 kts 115°
2026-05-06 11:30 44.90598 24.74122 16795 ft 346 kts 115°
2026-05-06 11:30 44.89600 24.77186 16471 ft 344 kts 115°
2026-05-06 11:30 44.88596 24.80267 16085 ft 343 kts 115°
2026-05-06 11:30 44.87603 24.83313 15655 ft 342 kts 114°
2026-05-06 11:31 44.86611 24.86349 15209 ft 341 kts 114°
2026-05-06 11:31 44.85610 24.89411 14754 ft 341 kts 114°
2026-05-06 11:31 44.84615 24.92451 14296 ft 340 kts 114°
2026-05-06 11:31 44.83625 24.95476 13839 ft 340 kts 114°
2026-05-06 11:32 44.82633 24.98501 13382 ft 339 kts 114°
2026-05-06 11:32 44.81647 25.01507 12924 ft 339 kts 114°
2026-05-06 11:32 44.80662 25.04504 12467 ft 338 kts 114°
2026-05-06 11:32 44.79668 25.07526 12004 ft 337 kts 114°
2026-05-06 11:33 44.78682 25.10521 11550 ft 337 kts 114°
2026-05-06 11:33 44.77708 25.13473 11108 ft 335 kts 115°
2026-05-06 11:33 44.76728 25.16443 10664 ft 334 kts 115°
2026-05-06 11:33 44.75751 25.19399 10293 ft 330 kts 115°
2026-05-06 11:34 44.74789 25.22304 10145 ft 319 kts 115°
2026-05-06 11:34 44.73881 25.25045 10069 ft 306 kts 115°
2026-05-06 11:34 44.72987 25.27738 9807 ft 301 kts 115°
2026-05-06 11:34 44.72107 25.30389 9521 ft 296 kts 115°
2026-05-06 11:35 44.71248 25.32972 9243 ft 292 kts 115°
2026-05-06 11:35 44.70390 25.35551 8966 ft 288 kts 115°
2026-05-06 11:35 44.69553 25.38066 8698 ft 284 kts 115°
2026-05-06 11:35 44.68716 25.40574 8414 ft 279 kts 115°
2026-05-06 11:36 44.67906 25.43005 7975 ft 276 kts 115°
2026-05-06 11:36 44.67085 25.45467 7433 ft 276 kts 115°
2026-05-06 11:36 44.66272 25.47899 6935 ft 274 kts 115°
2026-05-06 11:36 44.65475 25.50282 6526 ft 270 kts 115°
2026-05-06 11:37 44.64675 25.52672 6152 ft 268 kts 115°
2026-05-06 11:37 44.63885 25.55028 5803 ft 268 kts 115°
2026-05-06 11:37 44.63088 25.57401 5460 ft 269 kts 115°
2026-05-06 11:37 44.62288 25.59781 5118 ft 269 kts 115°
2026-05-06 11:38 44.61490 25.62159 4774 ft 269 kts 115°
2026-05-06 11:38 44.60695 25.64529 4430 ft 269 kts 115°
2026-05-06 11:38 44.59888 25.66924 4084 ft 268 kts 116°
2026-05-06 11:38 44.59094 25.69275 3744 ft 268 kts 115°
2026-05-06 11:39 44.58290 25.71663 3397 ft 268 kts 116°
2026-05-06 11:39 44.57491 25.74026 3053 ft 268 kts 115°
2026-05-06 11:39 44.56703 25.76357 2780 ft 265 kts 116°
2026-05-06 11:39 44.55914 25.78690 2627 ft 257 kts 116°
2026-05-06 11:40 44.55172 25.80903 2560 ft 246 kts 112°
2026-05-06 11:40 44.54743 25.83157 2513 ft 234 kts 96°
2026-05-06 11:40 44.54729 25.85391 2509 ft 223 kts 85°
2026-05-06 11:40 44.54912 25.87481 2521 ft 209 kts 83°
2026-05-06 11:41 44.55099 25.89379 2587 ft 189 kts 83°
2026-05-06 11:41 44.55251 25.91161 2367 ft 177 kts 85°
2026-05-06 11:41 44.55374 25.92821 2186 ft 163 kts 85°
2026-05-06 11:41 44.55483 25.94348 1994 ft 151 kts 85°
2026-05-06 11:42 44.55587 25.95800 1819 ft 148 kts 86°
2026-05-06 11:42 44.55690 25.97219 1646 ft 146 kts 86°
2026-05-06 11:42 44.55792 25.98623 1482 ft 145 kts 85°
2026-05-06 11:42 44.55896 26.00024 1302 ft 144 kts 86°
2026-05-06 11:43 44.55999 26.01423 1136 ft 144 kts 85°
2026-05-06 11:43 44.56104 26.02836 951 ft 143 kts 85°
2026-05-06 11:43 44.56208 26.04214 773 ft 143 kts 86°
2026-05-06 11:44 44.56414 26.06972 441 ft 140 kts 85°
2026-05-06 11:44 44.56517 26.08328 321 ft 132 kts 86°
2026-05-06 11:44 44.56596 26.09429 320 ft 94 kts 83°
2026-05-06 11:44 44.56656 26.10206 320 ft 67 kts 84°
2026-05-06 11:45 44.56693 26.10694 320 ft 31 kts 75°
2026-05-06 11:45 44.56837 26.10750 320 ft 19 kts 355°
2026-05-06 11:45 44.56968 26.10729 320 ft 18 kts 341°
2026-05-06 11:45 44.57049 26.10600 320 ft 17 kts 297°
2026-05-06 11:46 44.57064 26.10432 320 ft 19 kts 262°
2026-05-06 11:46 44.57047 26.10224 320 ft 21 kts 264°
2026-05-06 11:46 44.57029 26.10015 320 ft 20 kts 262°
2026-05-06 11:46 44.57008 26.09816 320 ft 20 kts 261°
2026-05-06 11:47 44.57002 26.09626 320 ft 19 kts 265°
2026-05-06 11:47 44.56987 26.09442 320 ft 18 kts 263°
2026-05-06 11:47 44.56974 26.09264 320 ft 18 kts 264°
2026-05-06 11:47 44.56959 26.09089 320 ft 17 kts 263°
2026-05-06 11:48 44.56946 26.08912 320 ft 18 kts 264°
2026-05-06 11:48 44.56932 26.08731 320 ft 18 kts 263°
2026-05-06 11:48 44.56912 26.08558 320 ft 17 kts 252°
2026-05-06 11:48 44.56916 26.08407 320 ft 16 kts 321°
2026-05-06 11:49 44.56950 26.08271 320 ft 15 kts 262°
2026-05-06 11:49 44.56937 26.08120 320 ft 15 kts 264°
2026-05-06 11:49 44.56929 26.07986 320 ft 8 kts 279°
2026-05-06 11:49 44.56979 26.07966 320 ft 8 kts 356°
2026-05-06 11:50 44.57009 26.07961 320 ft 0 kts 353°